#timestamp,LO_Frequency,Hit,StdDev 
1661850015.1,286047001.3,N
1661850035.9,286047006.0,N
1661850055.7,286047007.5,N
1661850075.5,286047010.7,Y
1661850095.4,286047004.1,P
1661850115.2,286047000.4,N
1661850135.1,286047000.8,N
1661850136.0,286047000.8,N
1661850155.8,286047000.0,N
1661850175.6,286047002.8,N
1661850195.5,286047002.5,N
1661850215.3,286047000.7,N
1661850235.1,286046997.5,N
1661850255.9,286046999.1,N
1661850275.7,286047005.4,N
1661850295.6,286047005.5,N
1661850315.4,286047000.7,N
1661850335.2,286046999.2,N
1661850355.1,286046999.3,N
1661850356.0,286046999.3,N
1661850375.8,286047001.3,N
1661850395.6,286047001.8,N
1661850415.5,286047000.8,N
1661850435.3,286046999.6,N
1661850455.2,286046997.2,N
1661850475.9,286046993.8,N
1661850495.7,286046993.5,N
1661850515.6,286046994.7,N
1661850535.4,286046991.8,N
1661850555.2,286046993.6,N
1661850575.1,286046996.1,N
1661850576.0,286046996.1,N
1661850595.8,286046993.9,N
1661850615.7,286046995.8,N
1661850635.5,286046993.9,N
1661850655.3,286046992.9,N
1661850675.2,286046992.0,N
1661850695.0,286046994.6,N
1661850695.9,286046994.6,N
1661850715.8,286046992.8,N
1661850735.6,286046991.0,N
1661850755.4,286046990.2,N
1661850775.3,286046992.0,N
1661850795.1,286046992.0,N
1661850815.9,286046992.2,N
1661850835.7,286046990.2,N
1661850855.5,286046990.2,N
1661850875.4,286046987.0,Y
1661850895.2,286046994.6,P
1661850915.0,286046993.0,P
1661850915.9,286046993.0,P
1661850935.8,286046989.7,Y
1661850955.6,286046993.1,P
1661850975.5,286046991.0,P
1661850995.3,286046991.2,P
1661851015.1,286046990.2,Y
1661851035.9,286047000.7,P
1661851055.7,286046998.5,N
1661851075.6,286046997.9,N
1661851095.4,286046996.4,N
1661851115.2,286046995.8,N
1661851135.1,286046996.7,N
1661851136.0,286046996.7,N
1661851155.8,286046998.9,N
1661851175.6,286046998.1,N
1661851195.5,286046999.7,N
1661851215.3,286046998.9,N
1661851235.2,286047000.0,N
1661851255.9,286047000.5,N
1661851275.7,286046999.0,N
1661851295.6,286046998.2,N
1661851315.4,286046997.5,N
1661851335.2,286046995.8,N
1661851355.1,286046996.1,N
1661851356.0,286046996.1,N
1661851375.8,286046993.3,Y
1661851395.7,286046997.7,P
1661851415.5,286046993.4,P
1661851435.3,286046992.8,P
1661851455.2,286046989.5,Y
1661851475.0,286046990.2,P
1661851475.9,286046990.2,P
1661851495.8,286046994.6,N
1661851515.6,286046993.8,N
1661851535.4,286046993.5,N
1661851555.3,286046993.5,Y
1661851575.1,286047001.1,P
1661851595.8,286047000.7,N
1661851615.7,286046999.5,N
1661851635.5,286046996.7,N
1661851655.4,286046997.4,N
1661851675.2,286046999.2,N
1661851695.0,286046995.4,N
1661851695.9,286046995.4,N
1661851715.8,286046995.3,N
1661851735.6,286046996.1,N
1661851755.4,286046995.7,N
1661851775.3,286046996.2,N
1661851795.1,286046995.9,N
1661851815.9,286046993.2,Y
1661851835.7,286046991.2,P
1661851855.5,286046987.4,P
1661851875.4,286046989.2,N
1661851895.2,286046987.7,Y
1661851915.1,286046994.6,P
1661851916.0,286046994.6,P
1661851935.8,286046996.0,N
1661851955.6,286046993.3,Y
1661851975.5,286046998.6,P
1661851995.3,286046997.3,N
1661852015.1,286046996.4,N
1661852035.9,286046992.0,Y
1661852055.7,286046995.7,P
1661852075.6,286046995.4,P
1661852095.4,286046994.0,P
1661852115.2,286046991.9,Y
1661852135.1,286046997.1,P
1661852136.0,286046997.1,P
1661852155.8,286047000.4,N
1661852175.7,286047001.1,N
1661852195.5,286046998.3,N
1661852215.3,286046999.5,N
1661852235.2,286046997.7,N
1661852255.0,286046994.9,N
1661852255.9,286046994.9,N
1661852275.8,286046995.6,N
1661852295.6,286046995.4,N
1661852315.4,286046996.8,N
1661852335.3,286047000.4,N
1661852355.1,286047002.2,N
1661852375.8,286047001.2,N
1661852395.7,286047002.6,N
1661852415.5,286047001.5,N
1661852435.4,286047004.1,N
1661852455.2,286047000.5,N
1661852475.0,286046998.2,N
1661852475.9,286046998.2,N
1661852495.8,286046998.8,N
1661852515.6,286046998.4,N
1661852535.4,286046998.1,N
1661852555.3,286047000.5,N
1661852575.1,286046998.8,N
1661852595.9,286046999.4,N
1661852615.7,286047000.8,N
1661852635.5,286047002.8,N
1661852655.4,286047002.3,N
1661852675.2,286046999.0,N
1661852695.0,286046997.3,N
1661852695.9,286046997.3,N
1661852715.8,286046996.6,N
1661852735.6,286046998.8,N
1661852755.5,286046994.9,N
1661852775.3,286046997.8,N
1661852795.1,286046999.2,N
1661852815.9,286047001.2,N
1661852835.7,286046999.0,N
1661852855.5,286047000.5,N
1661852875.4,286046998.5,N
1661852895.2,286046996.7,N
1661852915.1,286046995.4,N
1661852916.0,286046995.4,N
1661852935.8,286046993.3,Y
1661852955.6,286046999.3,P
1661852975.5,286046998.8,P
1661852995.3,286046997.1,P
1661853015.2,286046998.1,N
1661853035.9,286046999.3,N
1661853055.7,286046999.1,N
1661853075.6,286047001.2,N
1661853095.4,286047000.3,N
1661853115.2,286046998.6,N
1661853135.1,286046998.9,N
1661853136.0,286046998.9,N
1661853155.8,286047001.0,N
1661853175.7,286046998.2,N
1661853195.5,286046998.4,N
1661853215.3,286047000.6,N
1661853235.2,286046999.0,N
1661853255.0,286046999.5,N
1661853255.9,286046999.5,N
1661853275.7,286046999.1,N
1661853295.6,286046996.8,Y
1661853315.4,286047001.1,P
1661853335.3,286047002.1,N
1661853355.1,286047002.1,N
1661853375.8,286047001.0,N
1661853395.7,286046999.4,N
1661853415.5,286046997.0,N
1661853435.4,286046995.3,N
1661853455.2,286046995.3,N
1661853475.0,286046995.5,N
1661853475.9,286046995.5,N
1661853495.8,286046995.0,N
1661853515.6,286046995.9,N
1661853535.4,286046994.0,N
1661853555.3,286046990.9,Y
1661853575.1,286046993.0,P
1661853595.9,286046994.6,N
